Location: ???????
(55.4362°N, 38.1183°E)
Time: 01:29:06
(UTC+00:00)

CENTAUR R/B - Pass Details

Date: 17 June 2021
Orbit: 740 x 1447 km, 63.4° (Epoch: 17 July)

Event Time Altitude Azimuth Distance (km) Brightness Sun altitude
Rises 23:06:23 0° 298° (WNW) 3,895 5.7 -8.4°
Reaches altitude 10° 23:08:58 10° 303° (WNW) 3,035 5.2 -8.3°
Maximum altitude 23:16:17 57° 22° (NNE) 1,478 3.9 -7.9°
Drops below altitude 10° 23:24:42 10° 100° (E) 3,480 5.6 -7.4°
Sets 23:27:51 0° 105° (ESE) 4,502 6.1 -7.2°
